Погода в Пьюре

Перу     5°11′32″S   80°37′40″W
темп.,
°C
ветер,
м/с
пор.,
м/с
влажн.,
%
обл.,
%
осадки,
мм/ч
давл.,
гПа
погр.,
м
12 мая, ср
ср1201:00+21ю44649 0.0 1012383
04:00+20ю44695 0.0 1011280
07:00+20ююв45720 0.0 1012290
10:00+25ююв33520 0.0 1012603
13:00+30юз43380 0.0 10091081
16:00+27юз65490 0.0 1008527
19:00+23юз67635 0.0 1010353
22:00+22ю55655 0.0 1013403
13 мая, чт
чт1301:00+21ю44698 0.0 1012351
04:00+20ююв34745 0.0 1011286
07:00+20ююв34745 0.0 1012235
10:00+25ююв33535 0.0 1013652
13:00+30ююз44394 0.0 10101093
16:00+28юз76465 0.0 1008795
19:00+25ю88535 0.0 1010534
22:00+22ю66655 0.0 1013464
14 мая, пт
пт1401:00+21ююв34685 0.0 1012350
04:00+21ю33705 0.0 1011254
07:00+20ю34735 0.0 1012257
10:00+25ю335436 0.0 1012657
13:00+29ююз54435 0.0 10101129
16:00+28юз76483 0.0 1009933
19:00+24ююз68592 0.0 1011503
22:00+22ю67680 0.0 1013479
15 мая, сб
сб1501:00+21ююв347215 0.0 1013356
04:00+21ююв337476 0.3 1012326
07:00+21ю447314 0.3 1013329
10:00+25ю33575 0.0 1014678
13:00+30ю33425 0.0 10101056
16:00+29юз86465 0.0 1008830
19:00+25ююз79595 0.0 1011481
22:00+22ю67695 0.0 1013447
16 мая, вс
вс1601:00+21ююв447211 0.0 1013389
04:00+20ююв447392 0.0 1012376
07:00+20ю447670 0.0 1014282
10:00+25ю33575 0.0 1015658
13:00+30ююз53425 0.0 10121148
16:00+28юз75475 0.0 1010861
19:00+22юз676925 0.0 1013304
22:00+21ю566987 0.0 1015404